Location: Dugenta
(41.1333°N, 14.4500°E)
Time: 14:25:55
(UTC+00:00)

Meteor 1-25 Rocket - Pass Details

Date: 03 March 2021
Orbit: 835 x 893 km, 81.2° (Epoch: 20 April)

Event Time Altitude Azimuth Distance (km) Brightness Sun altitude
Rises 17:28:12 0° 187° (S) 3,475 7.5 -7.0°
Reaches altitude 10° 17:30:39 10° 187° (S) 2,534 6.8 -7.4°
Maximum altitude 17:36:26 89° 96° (E) 880 4.3 -8.5°
Drops below altitude 10° 17:42:10 10° 10° (N) 2,514 6.6 -9.6°
Sets 17:44:35 0° 10° (N) 3,446 7.3 -10.0°
